When you browse on this site, cookies collect data to enhance your experience and personalize the content and advertising you see.
Visit our Privacy Policy to learn more. By continuing to use the site, you agree to this use of cookies and data.
  • In United Kingdom
  • List of Countries
  • For 7 days
  • Water Temperature
  • Weather Map
  • Weather Widgets
  • user-avatar
    Login

    Hourly Weather Comanesti

    Today, 23 September, Monday

    Time Temperature Precipitation Wind Pressure Humidity
    00:00 +11°C° 0 mm 1 mps 711 mmHg 57%
    01:00 +11°C° 0 mm 1 mps 711 mmHg 57%
    02:00 +11°C° 0 mm 1 mps 711 mmHg 57%
    03:00 +10°C° 0 mm 1 mps 711 mmHg 57%
    04:00 +10°C° 0 mm 1 mps 711 mmHg 57%
    05:00 +10°C° 0 mm 1 mps 711 mmHg 56%
    06:00 +12°C° 0 mm 1 mps 711 mmHg 53%
    07:00 +13°C° 0 mm 1 mps 711 mmHg 50%
    08:00 +14°C° 0 mm 0 mps 711 mmHg 47%
    09:00 +18°C° 0 mm 1 mps 711 mmHg 42%
    10:00 +20°C° 0 mm 1 mps 711 mmHg 38%
    11:00 +22°C° 0 mm 1 mps 711 mmHg 34%
    12:00 +23°C° 0 mm 1 mps 711 mmHg 33%
    13:00 +23°C° 0 mm 2 mps 711 mmHg 31%
    14:00 +24°C° 0 mm 2 mps 710 mmHg 30%
    15:00 +23°C° 0 mm 2 mps 710 mmHg 34%
    16:00 +21°C° 0 mm 2 mps 710 mmHg 37%
    17:00 +21°C° 0 mm 1 mps 709 mmHg 40%
    18:00 +19°C° 0 mm 1 mps 709 mmHg 43%
    19:00 +18°C° 0 mm 1 mps 710 mmHg 47%
    20:00 +15°C° 0 mm 1 mps 710 mmHg 50%
    21:00 +15°C° 0 mm 1 mps 710 mmHg 51%
    22:00 +14°C° 0 mm 1 mps 709 mmHg 52%
    23:00 +14°C° 0 mm 1 mps 709 mmHg 53%

    Tomorrow, 24 September, Tuesday

    Time Temperature Precipitation Wind Pressure Humidity
    00:00 +13°C° 0 mm 1 mps 710 mmHg 54%
    01:00 +13°C° 0 mm 1 mps 710 mmHg 54%
    02:00 +13°C° 0 mm 1 mps 710 mmHg 55%
    03:00 +13°C° 0 mm 1 mps 710 mmHg 60%
    04:00 +12°C° 0 mm 1 mps 709 mmHg 64%
    05:00 +11°C° 0 mm 1 mps 709 mmHg 68%
    06:00 +12°C° 0 mm 1 mps 709 mmHg 69%
    07:00 +12°C° 0 mm 1 mps 710 mmHg 69%
    08:00 +12°C° 0 mm 1 mps 710 mmHg 70%
    09:00 +14°C° 0 mm 1 mps 710 mmHg 64%
    10:00 +16°C° 0 mm 1 mps 710 mmHg 58%
    11:00 +18°C° 0 mm 1 mps 711 mmHg 52%
    12:00 +18°C° 0 mm 2 mps 710 mmHg 49%
    13:00 +19°C° 0 mm 2 mps 710 mmHg 47%
    14:00 +20°C° 0 mm 2 mps 710 mmHg 44%
    15:00 +19°C° 0 mm 2 mps 710 mmHg 46%
    16:00 +19°C° 0 mm 2 mps 710 mmHg 48%
    17:00 +18°C° 0 mm 2 mps 709 mmHg 50%
    18:00 +17°C° 0 mm 2 mps 709 mmHg 59%
    19:00 +15°C° 0 mm 1 mps 709 mmHg 68%
    20:00 +13°C° 0 mm 1 mps 709 mmHg 77%
    21:00 +12°C° 0 mm 1 mps 709 mmHg 80%
    22:00 +12°C° 0 mm 1 mps 709 mmHg 83%
    23:00 +11°C° 0 mm 1 mps 709 mmHg 87%

    Day after tomorrow, 25 September, Wednesday

    Time Temperature Precipitation Wind Pressure Humidity
    00:00 +11°C° 0 mm 1 mps 709 mmHg 87%
    01:00 +10°C° 0 mm 0 mps 709 mmHg 88%
    02:00 +9°C° 0 mm 0 mps 709 mmHg 89%
    03:00 +9°C° 0 mm 0 mps 709 mmHg 89%
    04:00 +9°C° 0 mm 0 mps 709 mmHg 89%
    05:00 +9°C° 0 mm 0 mps 709 mmHg 90%
    06:00 +11°C° 0 mm 1 mps 709 mmHg 83%
    07:00 +13°C° 0 mm 1 mps 710 mmHg 77%
    08:00 +14°C° 0 mm 1 mps 710 mmHg 71%
    09:00 +16°C° 0 mm 1 mps 710 mmHg 62%
    10:00 +18°C° 0 mm 2 mps 710 mmHg 54%
    11:00 +20°C° 0 mm 3 mps 710 mmHg 46%
    12:00 +20°C° 0 mm 3 mps 710 mmHg 44%
    13:00 +21°C° 0 mm 3 mps 710 mmHg 42%
    14:00 +21°C° 0 mm 4 mps 709 mmHg 41%
    15:00 +21°C° 0 mm 3 mps 709 mmHg 44%
    16:00 +20°C° 0 mm 3 mps 709 mmHg 48%
    17:00 +19°C° 0 mm 3 mps 709 mmHg 52%
    18:00 +18°C° 0 mm 3 mps 709 mmHg 57%
    19:00 +16°C° 0 mm 2 mps 709 mmHg 62%
    20:00 +15°C° 0 mm 2 mps 709 mmHg 68%
    21:00 +15°C° 0.1 mm 2 mps 709 mmHg 71%
    22:00 +15°C° 0.1 mm 2 mps 709 mmHg 74%
    23:00 +14°C° 0.1 mm 1 mps 709 mmHg 77%

    26 September, Thursday

    Time Temperature Precipitation Wind Pressure Humidity
    00:00 +14°C° 0.3 mm 1 mps 709 mmHg 81%
    01:00 +14°C° 0.3 mm 1 mps 709 mmHg 85%
    02:00 +13°C° 0.3 mm 1 mps 708 mmHg 89%
    03:00 +13°C° 0.1 mm 1 mps 708 mmHg 90%
    04:00 +13°C° 0.1 mm 1 mps 709 mmHg 90%
    05:00 +13°C° 0.1 mm 1 mps 709 mmHg 91%
    06:00 +13°C° 0 mm 1 mps 709 mmHg 90%
    07:00 +14°C° 0 mm 1 mps 709 mmHg 88%
    08:00 +14°C° 0 mm 1 mps 709 mmHg 87%
    09:00 +16°C° 0.1 mm 1 mps 709 mmHg 81%
    10:00 +18°C° 0.1 mm 1 mps 710 mmHg 74%
    11:00 +19°C° 0.1 mm 1 mps 710 mmHg 68%
    12:00 +20°C° 0.4 mm 1 mps 710 mmHg 65%
    13:00 +21°C° 0.4 mm 1 mps 709 mmHg 62%
    14:00 +21°C° 0.4 mm 1 mps 709 mmHg 60%
    15:00 +20°C° 0.6 mm 1 mps 709 mmHg 66%
    16:00 +19°C° 0.6 mm 1 mps 708 mmHg 71%
    17:00 +18°C° 0.6 mm 1 mps 708 mmHg 77%
    18:00 +18°C° 0.6 mm 1 mps 708 mmHg 81%
    19:00 +16°C° 0.6 mm 1 mps 708 mmHg 84%
    20:00 +15°C° 0.6 mm 1 mps 708 mmHg 88%
    21:00 +15°C° 1 mm 1 mps 709 mmHg 89%
    22:00 +14°C° 1 mm 1 mps 709 mmHg 91%
    23:00 +14°C° 1 mm 1 mps 709 mmHg 93%

    27 September, Friday

    Time Temperature Precipitation Wind Pressure Humidity
    00:00 +14°C° 0.7 mm 2 mps 709 mmHg 93%
    01:00 +14°C° 0.7 mm 2 mps 709 mmHg 93%
    02:00 +13°C° 0.7 mm 2 mps 709 mmHg 93%
    03:00 +13°C° 0.5 mm 2 mps 709 mmHg 93%
    04:00 +13°C° 0.5 mm 2 mps 710 mmHg 94%
    05:00 +12°C° 0.5 mm 2 mps 710 mmHg 95%
    06:00 +13°C° 0.3 mm 2 mps 710 mmHg 93%
    07:00 +13°C° 0.3 mm 2 mps 711 mmHg 92%
    08:00 +13°C° 0.3 mm 2 mps 711 mmHg 90%
    09:00 +14°C° 0.2 mm 2 mps 712 mmHg 84%
    10:00 +16°C° 0.2 mm 2 mps 712 mmHg 77%
    11:00 +17°C° 0.2 mm 2 mps 713 mmHg 70%
    12:00 +17°C° 0.3 mm 2 mps 713 mmHg 69%
    13:00 +17°C° 0.3 mm 2 mps 713 mmHg 68%
    14:00 +17°C° 0.3 mm 2 mps 713 mmHg 67%
    15:00 +18°C° 0.1 mm 1 mps 713 mmHg 68%
    16:00 +18°C° 0.1 mm 1 mps 713 mmHg 69%
    17:00 +18°C° 0.1 mm 1 mps 713 mmHg 70%
    18:00 +15°C° 0 mm 1 mps 713 mmHg 75%
    19:00 +14°C° 0 mm 1 mps 713 mmHg 79%
    20:00 +13°C° 0 mm 1 mps 713 mmHg 84%
    21:00 +12°C° 0 mm 1 mps 713 mmHg 85%
    22:00 +12°C° 0 mm 1 mps 714 mmHg 86%
    23:00 +11°C° 0 mm 1 mps 714 mmHg 87%

    28 September, Saturday

    Time Temperature Precipitation Wind Pressure Humidity
    00:00 +11°C° 0 mm 1 mps 714 mmHg 87%
    01:00 +11°C° 0 mm 1 mps 714 mmHg 87%
    02:00 +10°C° 0 mm 1 mps 714 mmHg 87%
    03:00 +10°C° 0 mm 1 mps 714 mmHg 87%
    04:00 +10°C° 0 mm 1 mps 714 mmHg 87%
    05:00 +10°C° 0 mm 1 mps 714 mmHg 87%
    06:00 +11°C° 0 mm 1 mps 714 mmHg 82%
    07:00 +13°C° 0 mm 1 mps 714 mmHg 77%
    08:00 +14°C° 0 mm 1 mps 714 mmHg 73%
    09:00 +16°C° 0 mm 1 mps 714 mmHg 63%
    10:00 +20°C° 0 mm 1 mps 714 mmHg 53%
    11:00 +21°C° 0 mm 2 mps 715 mmHg 43%
    12:00 +23°C° 0 mm 2 mps 714 mmHg 41%
    13:00 +24°C° 0 mm 2 mps 714 mmHg 39%
    14:00 +24°C° 0 mm 3 mps 713 mmHg 36%
    15:00 +23°C° 0 mm 2 mps 713 mmHg 42%
    16:00 +21°C° 0 mm 2 mps 712 mmHg 47%
    17:00 +20°C° 0 mm 2 mps 712 mmHg 53%
    18:00 +19°C° 0 mm 2 mps 712 mmHg 59%
    19:00 +17°C° 0 mm 2 mps 712 mmHg 65%
    20:00 +15°C° 0 mm 2 mps 712 mmHg 71%
    21:00 +14°C° 0 mm 2 mps 712 mmHg 72%
    22:00 +14°C° 0 mm 2 mps 712 mmHg 72%
    23:00 +14°C° 0 mm 2 mps 712 mmHg 73%
    Show more